Regional Weather Roundup
Issued by NWS

Home | Current Version | Previous Version | Graphics & Text | Print | Product List | Glossary Off
Versions: 1 2 3 4 5 6 7 8 9 10 11 12 13 14 15 16 17 18 19 20 21 22 23 24 25 26 27 28 29 30 31 32 33 34 35 36 37 38 39 40 41 42 43 44 45 46 47 48 49 50

000
ASUS43 KDMX 232006
RWRIA

WEATHER ROUNDUP FOR IOWA
NATIONAL WEATHER SERVICE DES MOINES IA
300 PM CDT THU MAR 23 2017

NOTE: "FAIR" INDICATES FEW OR NO CLOUDS BELOW 12,000 FEET WITH NO
SIGNIFICANT WEATHER AND/OR OBSTRUCTIONS TO VISIBILITY.

* - THESE STATIONS ARE NOT NWS STATIONS...THUS NOT UNDER NWS
QUALITY CONTROL.  THEY ALSO DO NOT REPORT WEATHER SUCH
AS PRECIPITATION OR FOG.

IAZ001>003-012>014-020>022-031>034-043>046-232100-
   NORTHWEST IOWA

CITY           SKY/WX    TMP DP  RH WIND       PRES   REMARKS
CARROLL *      MOSUNNY   59  39  47 SE16G25   29.85R
CHEROKEE *     CLOUDY    50  38  62 S17G23    29.82R
DENISON *      CLOUDY    57  43  58 S9G17     29.81R
LE MARS *      CLOUDY    54  39  58 SE17G24   29.75F
ORANGE CITY *  CLOUDY    50  41  71 SE10G20   29.77S
SHELDON *      CLOUDY    45  45 100 SE21G28   29.79R
SIOUX CITY     TSTM      53  42  66 SE16      29.73F
SPENCER        CLOUDY    43  36  76 SE24G33   29.81F
$$

IAZ055>058-069>071-079>083-090>094-232100-
   SOUTHWEST IOWA

CITY           SKY/WX    TMP DP  RH WIND       PRES   REMARKS
ATLANTIC *     MOSUNNY   61  41  48 S18G26    29.81F
AUDUBON *      MOSUNNY   59  43  55 S10       29.85R
CLARINDA *     SUNNY     72  48  43 S20G29    29.82R
COUNCIL BLFS * PTSUNNY   66  50  55 S9G17     29.78S
CRESTON *      MOSUNNY   61  39  44 SE23G29   29.84F
HARLAN  *      CLOUDY    63  41  45 S10       29.85R
LAMONI         CLOUDY    62  38  40 SE22G36   29.84F
RED OAK *      MOSUNNY   70  46  43 S16G29    29.79S
SHENANDOAH *   MOSUNNY   73  50  43 S25G32    29.78F
$$

IAZ047>049-059>061-072>074-084-232100-
   CENTRAL IOWA

CITY           SKY/WX    TMP DP  RH WIND       PRES   REMARKS
AMES           PTSUNNY   51  36  56 SE21G29   29.90F
ANKENY *       SUNNY     54  36  50 SE18G25   29.89F
BOONE *        CLOUDY    50  36  57 SE24      29.87F
CHARITON *     SUNNY     55  37  50 SE25G31   29.82F
DES MOINES     PTSUNNY   56  35  45 SE20G28   29.89F
GRINNELL*      MOSUNNY   48  34  58 SE20G28   29.97F
MARSHALLTOWN   CLOUDY    43  33  68 SE21G30   29.94F
NEWTON *       MOSUNNY   50  34  53 SE25G32   29.92F
PELLA *        SUNNY     49  35  58 SE17G23   29.95F
$$

IAZ004>006-015-016-023>025-035-036-232100-
   NORTH CENTRAL IOWA

CITY           SKY/WX    TMP DP  RH WIND       PRES   REMARKS
ALGONA *       CLOUDY    41  34  75 SE20G26   29.85F
CLARION *      CLOUDY    41  36  81 SE24      29.87F
ESTHERVILLE    CLOUDY    37  34  89 SE28G35   29.79F WCI  25
FORT DODGE *   CLOUDY    48  34  57 SE18G24   29.86F
MASON CITY     CLOUDY    38  32  79 SE23G31   29.90F WCI  27
FOREST CITY *  CLOUDY    37  32  81 SE25      29.88F WCI  26
WEBSTER CITY * PTSUNNY   46  32  57 SE26      29.86F
$$

IAZ007>011-017>019-026>030-037>042-050>054-066-232100-
   NORTHEAST IOWA

CITY           SKY/WX    TMP DP  RH WIND       PRES   REMARKS
CEDAR RAPIDS   CLOUDY    39  37  92 SE16      30.03F WCI  30
CHARLES CITY * MIX PCPN  37  34  87 SE25G39   29.90F WCI  26
CLINTON *      CLOUDY    42  28  57 SE21      30.12F
DECORAH *      CLOUDY    39  30  70 S13G21    30.05S WCI  32
DUBUQUE        CLOUDY    39  27  62 S17       30.09F WCI  30
MONTICELLO *   CLOUDY    43  32  65 SE14G21   30.07F
OELWEIN *      CLOUDY    39  37  93 SE18G25   30.03F WCI  30
WATERLOO       CLOUDY    39  35  86 SE17      29.97F WCI  30
$$

IAZ064-065-067-068-078-232100-
   EAST CENTRAL IOWA

CITY           SKY/WX    TMP DP  RH WIND       PRES   REMARKS
DAVENPORT      CLOUDY    44  30  57 SE21      30.11F
IOWA CITY      CLOUDY    42  37  82 SE12G24   30.06F
MUSCATINE *    CLOUDY    41  37  87 SE14G25   30.09F
QUAD CITIES    CLOUDY    44  31  60 S17G24    30.12F
$$

IAZ062-063-075>077-085>089-095>099-232100-
   SOUTHEAST IOWA

CITY           SKY/WX    TMP DP  RH WIND       PRES   REMARKS
BURLINGTON     CLOUDY    44  44 100 SE17G25   30.07F
FAIRFIELD *    MOSUNNY   46  36  66 SE26G32   29.99F
FORT MADISON * MOSUNNY   48  43  81 SE20G28   30.07F
KEOKUK *       SUNNY     48  37  66 SE12G24   30.05F
OSKALOOSA *      N/A     48  36  64 SE22      29.98F
CENTERVILLE *    N/A     57  36  44 SE17G24   29.94F
OTTUMWA        MOSUNNY   51  37  58 SE18G25   29.97F
WASHINGTON *   CLOUDY    43  39  87 SE18G28   30.03F
$$

ABBREVIATIONS USED IN REMARKS
   TC - TEMPERATURES IN CELSIUS
  WCI - WIND CHILL INDEX
   HX - HEAT INDEX
  VSB - VISIBILITY
$$





USA.gov is the U.S. government's official web portal to all federal, state and local government web resources and services.